GW0126 Weather Reports


Display with metric or nautical units.
time (UTC)temp
F
wind
direction
speed
MPH
gust
MPH
rain 1hr
in
rain 24hr
in
rain mn
in
humidity
%
barometer
mb
20260504022630 62 165 0.0 0.0 0.00 0.00 0.00 66 1011.4
20260504022120 62 165 0.0 2.0 0.00 0.00 0.00 65 1011.5
20260504021223 62 160 0.0 1.0 0.00 0.00 0.00 64 1011.3
20260504020629 62 162 1.0 1.0 0.00 0.00 0.00 63 1011.3
20260504020119 62 163 0.0 1.0 0.00 0.00 0.00 62 1011.1
20260504015533 63 167 0.0 0.0 0.00 0.00 0.00 61 1011.3
20260504015020 63 164 0.0 0.0 0.00 0.00 0.00 60 1011.2
20260504012940 62 166 0.0 0.0 0.00 0.00 0.00 61 1011.1
20260504012431 62 164 0.0 0.0 0.00 0.00 0.00 61 1011.2
20260504011959 62 164 0.0 0.0 0.00 0.00 0.00 61 1010.7
20260504011410 63 164 0.0 0.0 0.00 0.00 0.00 60 1010.6
20260504010938 63 164 0.0 0.0 0.00 0.00 0.00 59 1010.6
20260504010003 61 164 0.0 0.0 0.00 0.00 0.00 61 1010.7
20260504005456 62 168 0.0 0.0 0.00 0.00 0.00 62 1010.8
20260504004820 62 170 0.0 0.0 0.00 0.00 0.00 63 1010.9
20260504004310 62 170 0.0 0.0 0.00 0.00 0.00 63 1010.7
20260504003800 63 169 0.0 0.0 0.00 0.00 0.00 62 1010.8
20260504003250 63 170 0.0 0.0 0.00 0.00 0.00 62 1010.8
20260504002740 64 170 0.0 0.0 0.00 0.00 0.00 60 1010.6
20260504001720 65 169 0.0 0.0 0.00 0.00 0.00 57 1010.5
20260504001213 65 169 0.0 0.0 0.00 0.00 0.00 55 1010.7
20260504000150 66 169 0.0 1.0 0.00 0.00 0.00 53 1010.8
20260503235640 66 169 0.0 0.0 0.00 0.00 0.00 52 1011.0
20260503234620 66 171 0.0 1.0 0.00 0.00 0.00 52 1010.7
20260503234110 66 198 0.0 1.0 0.00 0.00 0.00 52 1010.9
20260503233600 67 165 0.0 2.0 0.00 0.00 0.00 50 1010.8
20260503232540 67 152 2.0 2.0 0.00 0.00 0.00 50 1011.0
20260503232030 67 204 0.0 1.0 0.00 0.00 0.00 50 1011.1
20260503231558 68 72 0.0 1.0 0.00 0.00 0.00 49 1011.1
20260503230500 68 169 0.0 1.0 0.00 0.00 0.00 49 1011.2
20260503225950 68 118 1.0 1.0 0.00 0.00 0.00 49 1011.2
20260503225440 68 172 0.0 2.0 0.00 0.00 0.00 50 1010.9
20260503224930 68 166 0.0 1.0 0.00 0.00 0.00 50 1011.0
20260503224458 68 179 0.0 1.0 0.00 0.00 0.00 49 1011.0
20260503223948 68 92 1.0 2.0 0.00 0.00 0.00 50 1011.1
20260503223400 68 199 0.0 1.0 0.00 0.00 0.00 52 1011.1
20260503222850 67 184 0.0 1.0 0.00 0.00 0.00 53 1010.7
20260503222340 67 191 0.0 2.0 0.00 0.00 0.00 53 1010.7
20260503221833 66 221 0.0 1.0 0.00 0.00 0.00 54 1010.6
20260503220810 64 185 0.0 0.0 0.00 0.00 0.00 69 1010.5
20260503220300 64 184 0.0 0.0 0.00 0.00 0.00 69 1010.4
20260503214733 65 184 0.0 0.0 0.00 0.00 0.00 73 1010.7
20260503214220 65 183 0.0 0.0 0.00 0.00 0.00 67 1010.5
20260503213710 66 187 0.0 0.0 0.00 0.00 0.00 67 1010.6
20260503213200 67 187 0.0 0.0 0.00 0.00 0.00 64 1010.3
20260503211120 69 182 0.0 0.0 0.00 0.00 0.00 48 1010.1
20260503210610 70 136 0.0 1.0 0.00 0.00 0.00 49 1010.0
20260503210100 70 176 0.0 1.0 0.00 0.00 0.00 48 1009.9
20260503204058 65 175 0.0 0.0 0.00 0.00 0.00 65 1010.1
20260503203510 65 175 0.0 0.0 0.00 0.00 0.00 65 1010.1
20260503203000 65 175 0.0 0.0 0.00 0.00 0.00 66 1010.1
20260503201943 66 175 0.0 0.0 0.00 0.00 0.00 61 1010.1
20260503200920 67 175 0.0 0.0 0.00 0.00 0.00 59 1010.4
20260503200410 67 175 0.0 0.0 0.00 0.00 0.00 58 1010.5
20260503195938 68 175 0.0 0.0 0.00 0.00 0.00 57 1010.2
20260503195350 68 175 0.0 0.0 0.00 0.00 0.00 56 1010.2
20260503194839 68 175 0.0 0.0 0.00 0.00 0.00 56 1010.3
20260503194329 69 174 0.0 0.0 0.00 0.00 0.00 55 1010.3
20260503193819 69 197 0.0 0.0 0.00 0.00 0.00 55 1010.0
20260503193309 69 197 0.0 0.0 0.00 0.00 0.00 55 1010.2
20260503192837 69 180 0.0 0.0 0.00 0.00 0.00 54 1010.1
20260503191739 69 184 0.0 0.0 0.00 0.00 0.00 57 1010.1
20260503190719 69 184 0.0 0.0 0.00 0.00 0.00 55 1010.1
20260503184639 70 184 0.0 0.0 0.00 0.00 0.00 60 1009.8
20260503184208 71 183 0.0 0.0 0.00 0.00 0.00 58 1009.6
20260503183620 71 184 0.0 0.0 0.00 0.00 0.00 56 1009.8
20260503183109 71 184 0.0 0.0 0.00 0.00 0.00 55 1009.3
20260503182638 72 184 0.0 0.0 0.00 0.00 0.00 56 1009.7
20260503182049 73 184 0.0 0.0 0.00 0.00 0.00 56 1009.6
20260503181539 73 184 0.0 0.0 0.00 0.00 0.00 53 1009.4
20260503181029 74 184 0.0 0.0 0.00 0.00 0.00 52 1009.4
20260503180519 74 183 0.0 0.0 0.00 0.00 0.00 52 1009.4
20260503180010 75 183 0.0 0.0 0.00 0.00 0.00 50 1009.5
20260503175459 75 183 0.0 0.0 0.00 0.00 0.00 49 1009.6
20260503175033 76 183 0.0 0.0 0.00 0.00 0.00 48 1009.6
20260503173930 76 183 0.0 0.0 0.00 0.00 0.00 42 1009.6
20260503173458 77 163 0.0 0.0 0.00 0.00 0.00 39 1009.5
20260503171849 78 183 0.0 0.0 0.00 0.00 0.00 44 1009.5
20260503170319 79 183 0.0 0.0 0.00 0.00 0.00 36 1009.5
20260503150717 87 199 1.0 2.0 0.00 0.00 0.00 27 1010.1
20260503150207 87 351 1.0 3.0 0.00 0.00 0.00 26 1010.2
20260503131336 87 157 2.0 2.0 0.00 0.00 0.00 27 1010.9
20260503130826 87 181 2.0 2.0 0.00 0.00 0.00 28 1011.1
20260503130358 86 175 2.0 2.0 0.00 0.00 0.00 27 1011.1
20260503100226 83 101 3.0 4.0 0.00 0.00 0.00 32 1012.6
20260503081356 77 176 0.0 3.0 0.00 0.00 0.00 43 1013.0
20260503080846 77 173 2.0 3.0 0.00 0.00 0.00 45 1013.3
20260503080339 75 192 1.0 2.0 0.00 0.00 0.00 47 1013.3
20260503072725 71 185 0.0 1.0 0.00 0.00 0.00 53 1013.1
20260503072215 70 186 1.0 2.0 0.00 0.00 0.00 52 1013.2
20260503071709 68 188 1.0 2.0 0.00 0.00 0.00 54 1013.2
20260503071155 67 178 0.0 2.0 0.00 0.00 0.00 55 1013.0
20260503053855 56 182 0.0 2.0 0.00 0.00 0.00 75 1013.1
20260503053345 55 187 0.0 2.0 0.00 0.00 0.00 76 1013.4
20260503052835 54 191 0.0 1.0 0.00 0.00 0.00 78 1013.3
20260503052325 52 186 0.0 1.0 0.00 0.00 0.00 80 1013.2
20260503051853 51 187 0.0 0.0 0.00 0.00 0.00 83 1013.6
20260503045735 50 187 0.0 0.0 0.00 0.00 0.00 82 1013.3
20260503045305 50 182 0.0 1.0 0.00 0.00 0.00 83 1013.4
20260503044715 49 193 0.0 0.0 0.00 0.00 0.00 83 1013.5
20260503044205 48 186 0.0 0.0 0.00 0.00 0.00 85 1013.2
20260503043655 48 186 0.0 0.0 0.00 0.00 0.00 86 1013.4
20260503043145 48 186 0.0 0.0 0.00 0.00 0.00 86 1013.2
20260503041615 47 209 0.0 0.0 0.00 0.00 0.00 88 1013.1
20260503041105 47 209 0.0 0.0 0.00 0.00 0.00 88 1013.0
20260503040555 46 209 0.0 0.0 0.00 0.00 0.00 88 1013.1
20260503040045 47 209 0.0 0.0 0.00 0.00 0.00 87 1013.3
20260503035025 47 209 0.0 0.0 0.00 0.00 0.00 87 1013.0
20260503034515 47 209 0.0 0.0 0.00 0.00 0.00 88 1013.4
20260503034005 47 209 0.0 0.0 0.00 0.00 0.00 87 1013.4
20260503033455 47 209 0.0 0.0 0.00 0.00 0.00 87 1013.4
20260503032945 47 209 0.0 0.0 0.00 0.00 0.00 87 1013.2
20260503032516 47 209 0.0 0.0 0.00 0.00 0.00 87 1013.4
20260503031925 47 209 0.0 0.0 0.00 0.00 0.00 87 1013.5
20260503030905 47 209 0.0 0.0 0.00 0.00 0.00 87 1013.2
20260503030355 47 209 0.0 0.0 0.00 0.00 0.00 88 1013.4
20260503025845 47 209 0.0 0.0 0.00 0.00 0.00 88 1013.3
20260503024825 47 209 0.0 0.0 0.00 0.00 0.00 88 1013.3
20260503024315 47 209 0.0 0.0 0.00 0.00 0.00 88 1013.2